TimeEST,TemperatureF,Dew PointF,Humidity,Sea Level PressureIn,VisibilityMPH,Wind Direction,Wind SpeedMPH,Gust SpeedMPH,PrecipitationIn,Events,Conditions,WindDirDegrees,DateUTC
12:56 AM,64.9,63.0,93,29.99,10.0,SSE,4.6,-,N/A,,Overcast,160,2012-12-08 05:56:00
1:37 AM,64.4,62.6,94,29.97,8.0,South,4.6,-,0.03,Rain,Light Rain,180,2012-12-08 06:37:00
1:56 AM,64.0,63.0,96,29.98,7.0,Calm,Calm,-,0.04,Rain,Light Rain,0,2012-12-08 06:56:00
2:22 AM,64.4,62.6,94,29.96,1.5,Calm,Calm,-,0.00,,Scattered Clouds,0,2012-12-08 07:22:00
2:41 AM,62.6,62.6,100,29.95,0.8,Calm,Calm,-,0.00,,Mist,0,2012-12-08 07:41:00
2:53 AM,62.6,60.8,94,29.95,0.8,SSE,3.5,-,0.00,,Mostly Cloudy,150,2012-12-08 07:53:00
2:56 AM,62.1,61.0,96,29.97,0.8,SSE,3.5,-,0.00,,Mostly Cloudy,150,2012-12-08 07:56:00
3:09 AM,62.6,60.8,94,29.96,1.0,SSE,5.8,-,N/A,,Overcast,150,2012-12-08 08:09:00
3:30 AM,62.6,62.6,100,29.95,2.5,SSE,3.5,-,N/A,,Overcast,150,2012-12-08 08:30:00
3:37 AM,62.6,62.6,100,29.95,2.0,SSE,3.5,-,N/A,,Mostly Cloudy,150,2012-12-08 08:37:00
3:49 AM,62.6,62.6,100,29.95,1.5,Calm,Calm,-,N/A,,Scattered Clouds,0,2012-12-08 08:49:00
3:56 AM,63.0,62.1,97,29.96,0.8,Calm,Calm,-,N/A,,Mostly Cloudy,0,2012-12-08 08:56:00
4:03 AM,62.6,60.8,94,29.95,0.8,Calm,Calm,-,N/A,,Mostly Cloudy,0,2012-12-08 09:03:00
4:46 AM,60.8,60.8,100,29.95,0.5,WSW,5.8,-,N/A,Fog,Fog,240,2012-12-08 09:46:00
4:53 AM,60.8,60.8,100,29.95,0.8,WSW,6.9,-,N/A,,Overcast,250,2012-12-08 09:53:00
4:56 AM,62.1,60.1,93,29.97,0.8,West,5.8,-,N/A,,Mist,260,2012-12-08 09:56:00
5:05 AM,62.6,60.8,94,29.95,0.5,West,4.6,-,N/A,Fog,Fog,260,2012-12-08 10:05:00
5:21 AM,62.6,60.8,94,29.96,0.5,WSW,3.5,-,N/A,Fog,Fog,250,2012-12-08 10:21:00
5:37 AM,62.6,62.6,100,29.96,0.5,SW,3.5,-,N/A,Fog,Fog,220,2012-12-08 10:37:00
5:46 AM,62.6,60.8,94,29.96,0.5,SW,3.5,-,N/A,Fog,Fog,230,2012-12-08 10:46:00
5:56 AM,62.1,61.0,96,29.98,0.5,WSW,3.5,-,N/A,Fog,Fog,240,2012-12-08 10:56:00
6:02 AM,62.6,60.8,94,29.97,0.5,Calm,Calm,-,N/A,Fog,Fog,0,2012-12-08 11:02:00
6:16 AM,62.6,60.8,94,29.97,0.8,Calm,Calm,-,N/A,,Overcast,0,2012-12-08 11:16:00
6:22 AM,62.6,60.8,94,29.98,0.8,West,3.5,-,N/A,,Overcast,260,2012-12-08 11:22:00
6:31 AM,62.6,60.8,94,29.98,1.0,West,3.5,-,N/A,,Overcast,260,2012-12-08 11:31:00
6:40 AM,62.6,60.8,94,29.98,3.0,West,4.6,-,N/A,,Overcast,270,2012-12-08 11:40:00
6:52 AM,62.6,62.6,100,29.98,4.0,West,6.9,-,N/A,,Overcast,270,2012-12-08 11:52:00
6:56 AM,63.0,62.1,97,29.99,4.0,West,6.9,-,N/A,,Overcast,270,2012-12-08 11:56:00
7:53 AM,62.6,62.6,100,30.00,9.0,West,8.1,-,N/A,,Overcast,270,2012-12-08 12:53:00
7:56 AM,63.0,62.1,97,30.01,9.0,West,8.1,-,N/A,,Overcast,270,2012-12-08 12:56:00
8:56 AM,63.0,62.1,97,30.03,10.0,West,8.1,-,N/A,,Overcast,270,2012-12-08 13:56:00
9:07 AM,62.6,62.6,100,30.02,10.0,West,6.9,-,N/A,,Overcast,270,2012-12-08 14:07:00
9:18 AM,62.6,60.8,94,30.02,10.0,West,8.1,-,N/A,,Overcast,270,2012-12-08 14:18:00
9:56 AM,63.0,61.0,93,30.04,10.0,West,10.4,-,N/A,,Overcast,270,2012-12-08 14:56:00
10:34 AM,62.6,60.8,94,30.03,10.0,West,9.2,-,N/A,,Overcast,260,2012-12-08 15:34:00
10:56 AM,62.1,60.1,93,30.04,10.0,West,9.2,-,N/A,,Overcast,270,2012-12-08 15:56:00
11:56 AM,64.9,60.1,84,30.02,10.0,WSW,8.1,-,N/A,,Scattered Clouds,240,2012-12-08 16:56:00
12:56 PM,66.0,59.0,78,30.00,10.0,WSW,9.2,-,N/A,,Clear,250,2012-12-08 17:56:00
1:56 PM,66.9,57.9,73,29.99,10.0,West,11.5,-,N/A,,Clear,260,2012-12-08 18:56:00
2:56 PM,69.1,57.9,68,30.00,10.0,West,9.2,-,N/A,,Clear,260,2012-12-08 19:56:00
3:56 PM,66.9,57.9,73,30.01,10.0,West,9.2,-,N/A,,Clear,270,2012-12-08 20:56:00
4:56 PM,64.0,57.9,80,30.03,10.0,SW,5.8,-,N/A,,Clear,220,2012-12-08 21:56:00
5:56 PM,60.1,57.0,90,30.04,10.0,South,6.9,-,N/A,,Clear,190,2012-12-08 22:56:00
6:56 PM,57.9,55.9,93,30.06,8.0,SW,8.1,-,N/A,,Clear,230,2012-12-08 23:56:00
7:56 PM,57.9,55.9,93,30.06,6.0,SSW,4.6,-,N/A,,Clear,200,2012-12-09 00:56:00
8:56 PM,57.0,55.0,93,30.08,5.0,SSW,5.8,-,N/A,,Clear,200,2012-12-09 01:56:00
9:45 PM,55.4,53.6,94,30.07,2.5,SW,4.6,-,N/A,,Clear,220,2012-12-09 02:45:00
9:56 PM,57.0,55.0,93,30.09,3.0,SW,6.9,-,N/A,,Clear,230,2012-12-09 02:56:00
10:56 PM,55.9,54.0,93,30.09,4.0,SSW,6.9,-,N/A,,Clear,210,2012-12-09 03:56:00
11:27 PM,55.4,55.4,100,30.08,2.5,SSW,4.6,-,0.01,,Scattered Clouds,210,2012-12-09 04:27:00
11:32 PM,55.4,53.6,94,30.08,1.8,SW,4.6,-,0.01,,Mostly Cloudy,220,2012-12-09 04:32:00
11:41 PM,55.4,53.6,94,30.08,0.5,WSW,4.6,-,0.01,Fog,Fog,240,2012-12-09 04:41:00
11:56 PM,55.0,54.0,96,30.10,0.5,SW,5.8,-,0.01,Fog,Fog,230,2012-12-09 04:56:00